Regional Weather Roundup
Issued by NWS

Home | Current Version | Previous Version | Text Only | Print | Product List | Glossary Off
Versions: 1 2 3 4 5 6 7 8 9 10 11 12 13 14 15 16 17 18 19 20 21 22 23 24 25 26 27 28 29 30 31 32 33 34 35 36 37 38 39 40 41 42 43 44 45 46 47 48 49 50

720
ASUS43 KMKX 201000
RWRWI

WISCONSIN REGIONAL WEATHER ROUNDUP
NATIONAL WEATHER SERVICE MILWAUKEE/SULLIVAN WI
400 AM CST FRI JAN 20 2017

NOTE: "FAIR" INDICATES FEW OR NO CLOUDS BELOW 12,000 FEET WITH NO
SIGNIFICANT WEATHER AND/OR OBSTRUCTIONS TO VISIBILITY.

WIZ001-002-006>008-014>016-023>028-201100-
NORTHWEST WISCONSIN

CITY           SKY/WX    TMP DP  RH WIND       PRES   REMARKS
SUPERIOR ARPT  CLOUDY    32  32 100 CALM      29.69S FOG
ASHLAND        CLOUDY    32  29  88 CALM      29.68
HAYWARD        CLOUDY    35  30  82 CALM      29.66F
SIREN          CLOUDY    35  34  97 CALM      29.66F FOG
CUMBERLAND     CLOUDY    32  32 100 E5        29.65F FOG     WCI  27
RICE LAKE      DRIZZLE   34  33  96 NE3       29.67F
CHETEK         DRIZZLE   34  34 100 E3        29.66F
LADYSMITH      LGT RAIN  34  33  96 E5        29.69F WCI  30
EAU CLAIRE     CLOUDY    36  34  93 E5        29.65F FOG     WCI  32
MENOMONIE        N/A    N/A N/A N/A MISG        N/A
NEW RICHMOND   CLOUDY    35  35 100 CALM      29.65F FOG
OSCEOLA        CLOUDY    35  35 100 SE3       29.67F FOG
$$

WIZ003>005-009-010-017-018-201100-
NORTH CENTRAL WISCONSIN

CITY           SKY/WX    TMP DP  RH WIND       PRES   REMARKS
MANITOWISH WTR   N/A     25  25 100 E3        29.68F FOG
ARBOR VITAE    CLOUDY    29  28  96 SE3       29.69S FOG
WOODRUFF       CLOUDY    29  28  96 SE3       29.69S FOG
RHINELANDER    MOCLDY    26  26 100 E5        29.69F FOG     WCI  20
EAGLE RIVER    CLOUDY    27  27 100 CALM      29.69F
LAND O LAKES   CLOUDY    23  22  96 CALM      29.71S
PHILLIPS       CLOUDY    31  31  98 SE3       29.68S
TOMAHAWK       CLOUDY    30  29  97 CALM      29.70F FOG
MEDFORD        CLOUDY    32  31  98 E7        29.66F FOG     WCI  26
MERRILL        MIX PCPN  32  32 100 CALM        N/A
$$

WIZ029-030-035-036-043>047-201100-
CENTRAL WISCONSIN

CITY           SKY/WX    TMP DP  RH WIND       PRES   REMARKS
WAUSAU         FRZ RAIN  32  31  96 E7        29.68F FOG     WCI  26
MOSINEE        MIX PCPN  32  32 100 E8        29.70F WCI  25
MARSHFIELD     CLOUDY    33  31  92 E9        29.66F FOG     WCI  25
STEVENS POINT  MIX PCPN  31  31 100 NE7       29.69F WCI  24
WAUPACA        LGT RAIN  34  32  94 CALM      29.73S
WAUTOMA        LGT RAIN  33  32  96 CALM      29.70S FOG
WISC RAPIDS    CLOUDY    34  33  96 E7        29.69  FOG     WCI  28
CAMP DOUGLAS   CLOUDY    32  32 100 E3        29.67S FOG
$$

WIZ011>013-019>022-031-037>040-048>050-201100-
NORTHEAST WISCONSIN

CITY           SKY/WX    TMP DP  RH WIND       PRES   REMARKS
ANTIGO         CLOUDY    30  30 100 E3        29.71S FOG
SHAWANO        DRZL/FOG  33  32  96 NE5       29.74F VSB 3/4 WCI  28
OCONTO         NOT AVBL
STURGEON BAY   FOG       33  32  96 CALM      29.74F VSB 1/4
GREEN BAY      FOG       34  34 100 NE6       29.73F VSB 1/4 WCI  29
MANITOWOC      LGT RAIN  34  34 100 N3        29.72F VSB 1/2
APPLETON       LGT RAIN  32  32 100 NE3       29.70F
CLINTONVILLE   MIX PCPN  32  32 100 NE5       29.72F VSB 3/4 WCI  27
OSHKOSH        LGT RAIN  33  33 100 NE5       29.70F FOG     WCI  29
$$

WIZ032>034-041-042-053>061-201100-
SOUTHWEST WISCONSIN

CITY           SKY/WX    TMP DP  RH WIND       PRES   REMARKS
LA CROSSE      NOT AVBL
SPARTA         CLOUDY    33  33 100 E3        29.68F FOG
VIROQUA        CLOUDY    34  34 100 E8        29.64F VSB 1   WCI  27
BOSCOBEL       CLOUDY    36  35  96 NE3       29.67S FOG
PRAIRIE DU CHI FOG       34  33  96 CALM      29.66S VSB 1/2
PLATTEVILLE    CLOUDY    35  35 100 E6        29.65S VSB 1   WCI  30
$$

WIZ056-057-062-063-064-067-068-201100-
SOUTH CENTRAL WISCONSIN

CITY           SKY/WX    TMP DP  RH WIND       PRES   REMARKS
REEDSBURG      DRIZZLE   34  34 100 E3        29.67F
BARABOO/DELLS  FOG       34  33  99 NE3       29.67S VSB 3/4
LONE ROCK      NOT AVBL
MINERAL POINT  LGT RAIN  36  36 100 E5        29.65S WCI  32
MADISON        CLOUDY    35  34  96 E7        29.67S FOG     WCI  29
MIDDLETON      CLOUDY    37  37 100 E5        29.67S WCI  33
WATERTOWN      CLOUDY    35  35 100 CALM      29.67S
MONROE         FOG       34  34 100 NE6       29.64F VSB 1/4 WCI  29
JANESVILLE     CLOUDY    36  36 100 E5        29.66R WCI  32
$$

WIZ051-052-058>065-066-070>072-201100-
SOUTHEAST WISCONSIN

CITY           SKY/WX    TMP DP  RH WIND       PRES   REMARKS
MILWAUKEE      LGT RAIN  38  36  92 E12       29.69F VSB 1   WCI  30
WAUKESHA       LGT RAIN  34  34 100 E14       29.65F WCI  24
MILWAUKEE/TIMM LGT RAIN  36  34  93 E5        29.69F WCI  32
RACINE         LGT RAIN  37  36  96 E12       29.69F FOG     WCI  29
KENOSHA        RAIN      37  36  96 E13       29.67F FOG     WCI  29
FOND DU LAC    RAIN      35  32  88 NE7       29.69F FOG     WCI  29
SHEBOYGAN      LGT RAIN  35  34  96 NE7       29.70F FOG     WCI  29
WEST BEND      RAIN      34  34 100 NE8       29.69F WCI  27
JUNEAU         DRIZZLE   34  34  99 NE9       29.68F WCI  27
$$

LSZ147-162-201100-
LAKE SUPERIOR

STATION/POSITION TIME  TEMP    WIND        PRES    WAVE
                       AIR SEA DIR/SP/G            HT/PER
                 (UTC) (F)     (DEG/KT/KT) (MB)    (FT/S)
DEVILS ISLAND    0900   38     210/  3/  4 1006.1F
PORT WING        0940   34      30/  4/  4 1005.1F
SAXON HARBOR     0940   32      CALM  /  3 1005.1F
$$

LMZ867-665-643>646-201100-
LAKE MICHIGAN

STATION/POSITION TIME  TEMP    WIND        PRES    WAVE
                       AIR SEA DIR/SP/G            HT/PER
                 (UTC) (F)     (DEG/KT/KT) (MB)    (FT/S)
NORTHPORT PIER   0940   33        CALM     1007.5F
SISTER BAY       0950   33        CALM       N/A
KEWAUNEE LAKESHO 0930   35      40/  1/  4 1006.7F
SHEBOYGAN LAKESH 0900   35      10/  9/  9 1006.9F
PORT WASHINGTON  0930   36      40/  8/ 11 1007.1S
MILWAUKEE LAKESH 0830   36      70/  7/  7   N/A
KENOSHA   LAKESH 0900   36      60/ 11/ 12 1005.8
$$

TC  - TEMPERATURE IN CELSIUS
VSB - VISIBILITY IN STATUTE MILES
WCI - WIND CHILL INDEX
HX  - HEAT INDEX





USA.gov is the U.S. government's official web portal to all federal, state and local government web resources and services.